This is the latest recevied weather packets stored in our database for station/object DB0OVP-13. If no packets are shown the sender has not sent any weather packets the latest 1 day(s).
| Time | Temp. | Humidity | Pressure | Rain* | Wind** | Luminosity | Snow |
|---|---|---|---|---|---|---|---|
| 1777980659 | 11.67° C | 100% | 0 hPa | 0.51 mm | 2.24 m/s, 82° | - | - |
| 1777979759 | 11.67° C | 100% | 0 hPa | 0.25 mm | 0.45 m/s, 9° | - | - |
| 1777978859 | 11.67° C | 100% | 0 hPa | 0.25 mm | 0.89 m/s, 115° | - | - |
| 1777977959 | 11.67° C | 100% | 0 hPa | 0.25 mm | 2.68 m/s, 52° | - | - |
| 1777977059 | 11.67° C | 100% | 0 hPa | 0.25 mm | 1.79 m/s, 104° | - | - |
| 1777976159 | 12.22° C | 100% | 0 hPa | 0.25 mm | 3.13 m/s, 73° | - | - |
| 1777975259 | 12.22° C | 100% | 0 hPa | 0.25 mm | 1.34 m/s, 95° | - | - |
| 1777974359 | 11.67° C | 100% | 0 hPa | 0 mm | 1.79 m/s, 73° | - | - |
| 1777973459 | 11.67° C | 100% | 0 hPa | 0 mm | 0.45 m/s, 70° | - | - |
| 1777972559 | 12.22° C | 100% | 0 hPa | 0 mm | 1.34 m/s, 45° | - | - |
| 1777971660 | 11.67° C | 100% | 0 hPa | 0 mm | 0.89 m/s, 49° | - | - |
| 1777970760 | 11.67° C | 100% | 0 hPa | 0 mm | 2.24 m/s, 33° | - | - |
| 1777969860 | 11.67° C | 100% | 0 hPa | 0.25 mm | 1.34 m/s, 49° | - | - |
| 1777968960 | 11.67° C | 100% | 0 hPa | 0.51 mm | 0 m/s | - | - |
| 1777968060 | 11.11° C | 100% | 0 hPa | 0.76 mm | 0.89 m/s, 66° | - | - |
| 1777967160 | 11.11° C | 100% | 0 hPa | 1.02 mm | 1.79 m/s, 59° | - | - |
| 1777966260 | 11.11° C | 100% | 0 hPa | 0.76 mm | 2.68 m/s, 60° | - | - |
| 1777965360 | 11.67° C | 100% | 0 hPa | 0.76 mm | 0 m/s | - | - |
| 1777964460 | 11.67° C | 100% | 0 hPa | 0.51 mm | 0 m/s | - | - |
| 1777963560 | 11.67° C | 100% | 0 hPa | 0.51 mm | 0 m/s | - | - |
| 1777962660 | 11.67° C | 100% | 0 hPa | 0.76 mm | 0 m/s | - | - |
| 1777961760 | 11.67° C | 100% | 0 hPa | 0.51 mm | 0 m/s | - | - |
| 1777960860 | 11.67° C | 100% | 0 hPa | 0.51 mm | 0 m/s | - | - |
| 1777959960 | 11.11° C | 100% | 0 hPa | 0.25 mm | 0 m/s | - | - |
| 1777959060 | 11.67° C | 100% | 0 hPa | 0 mm | 0 m/s | - | - |
* Rain latest hour (hover to see other rain measurements)
** Current wind speed in m/s (hover to see current wind gust speed)